Location: The Saddle
(36.8333°N, 80.3417°W)
Time: 13:07:46
(UTC-04:00)

Courier 1B - Pass Details

Date: 26 September 2024
Orbit: 962 x 1208 km, 28.3° (Epoch: 06 October)

Event Time Altitude Azimuth Distance (km) Brightness Sun altitude
Rises 15:56:03 0° 263° (W) 3,739 11.3 36.0°
Reaches altitude 10° 15:59:23 10° 248° (WSW) 2,826 11.2 35.4°
Maximum altitude 16:04:18 21° 202° (SSW) 2,194 10.5 34.6°
Drops below altitude 10° 16:09:24 10° 156° (SSE) 2,953 10.2 33.7°
Sets 16:13:00 0° 141° (SE) 3,956 10.6 33.1°
